TimeMST,TemperatureF,Dew PointF,Humidity,Sea Level PressureIn,VisibilityMPH,Wind Direction,Wind SpeedMPH,Gust SpeedMPH,PrecipitationIn,Events,Conditions,WindDirDegrees,DateUTC
12:15 AM,26.6,24.8,93,30.08,6.0,Calm,Calm,-,N/A,,Mostly Cloudy,0,2013-12-01 07:15:00
12:35 AM,26.6,26.6,100,30.09,10.0,West,3.5,-,N/A,,Mostly Cloudy,260,2013-12-01 07:35:00
12:55 AM,28.4,26.6,93,30.07,10.0,Calm,Calm,-,N/A,,Mostly Cloudy,0,2013-12-01 07:55:00
1:15 AM,28.4,24.8,86,30.07,8.0,Calm,Calm,-,N/A,,Mostly Cloudy,0,2013-12-01 08:15:00
1:35 AM,28.4,24.8,86,30.06,7.0,Calm,Calm,-,N/A,,Overcast,0,2013-12-01 08:35:00
1:55 AM,28.4,26.6,93,30.06,9.0,Calm,Calm,-,N/A,,Mostly Cloudy,0,2013-12-01 08:55:00
2:15 AM,28.4,26.6,93,30.05,8.0,NE,3.5,-,N/A,,Mostly Cloudy,50,2013-12-01 09:15:00
2:35 AM,26.6,24.8,93,30.05,7.0,Calm,Calm,-,N/A,,Mostly Cloudy,0,2013-12-01 09:35:00
2:55 AM,26.6,24.8,93,30.04,8.0,Calm,Calm,-,N/A,,Mostly Cloudy,0,2013-12-01 09:55:00
3:15 AM,26.6,26.6,100,30.03,7.0,Calm,Calm,-,N/A,,Mostly Cloudy,0,2013-12-01 10:15:00
3:35 AM,26.6,24.8,93,30.02,7.0,Calm,Calm,-,N/A,,Overcast,0,2013-12-01 10:35:00
3:55 AM,26.6,26.6,100,30.02,7.0,SW,3.5,-,N/A,,Mostly Cloudy,220,2013-12-01 10:55:00
4:15 AM,28.4,26.6,93,30.01,8.0,Calm,Calm,-,N/A,,Overcast,0,2013-12-01 11:15:00
4:35 AM,28.4,28.4,100,30.00,7.0,Calm,Calm,-,N/A,,Overcast,0,2013-12-01 11:35:00
4:55 AM,28.4,28.4,100,30.00,5.0,Calm,Calm,-,N/A,,Overcast,0,2013-12-01 11:55:00
5:15 AM,28.4,28.4,100,29.99,5.0,Calm,Calm,-,N/A,,Overcast,0,2013-12-01 12:15:00
5:35 AM,28.4,26.6,93,29.99,6.0,Calm,Calm,-,N/A,,Overcast,0,2013-12-01 12:35:00
5:55 AM,28.4,26.6,93,29.98,5.0,Calm,Calm,-,N/A,,Overcast,0,2013-12-01 12:55:00
6:15 AM,28.4,26.6,93,29.98,5.0,Calm,Calm,-,N/A,,Overcast,0,2013-12-01 13:15:00
6:35 AM,28.4,26.6,93,29.96,5.0,Calm,Calm,-,N/A,,Overcast,0,2013-12-01 13:35:00
6:55 AM,28.4,26.6,93,29.97,6.0,Calm,Calm,-,N/A,,Overcast,0,2013-12-01 13:55:00
7:15 AM,28.4,26.6,93,29.97,9.0,Calm,Calm,-,N/A,,Overcast,0,2013-12-01 14:15:00
7:35 AM,26.6,24.8,93,29.96,8.0,Calm,Calm,-,N/A,,Overcast,0,2013-12-01 14:35:00
7:55 AM,26.6,24.8,93,29.95,7.0,Calm,Calm,-,N/A,,Overcast,0,2013-12-01 14:55:00
8:15 AM,26.6,24.8,93,29.94,8.0,Calm,Calm,-,N/A,,Mostly Cloudy,0,2013-12-01 15:15:00
8:35 AM,26.6,24.8,93,29.94,8.0,Calm,Calm,-,N/A,,Partly Cloudy,0,2013-12-01 15:35:00
8:55 AM,26.6,24.8,93,29.94,10.0,Calm,Calm,-,N/A,,Clear,0,2013-12-01 15:55:00
9:15 AM,26.6,24.8,93,29.93,10.0,Calm,Calm,-,N/A,,Clear,0,2013-12-01 16:15:00
9:35 AM,28.4,26.6,93,29.93,10.0,Calm,Calm,-,N/A,,Clear,0,2013-12-01 16:35:00
9:55 AM,28.4,26.6,93,29.92,10.0,Calm,Calm,-,N/A,,Clear,0,2013-12-01 16:55:00
10:15 AM,30.2,28.4,93,29.91,10.0,Calm,Calm,-,N/A,,Clear,0,2013-12-01 17:15:00
10:35 AM,32.0,28.4,87,29.91,10.0,SSW,4.6,-,N/A,,Clear,200,2013-12-01 17:35:00
10:55 AM,33.8,30.2,87,29.89,10.0,South,6.9,-,0.01,,Clear,190,2013-12-01 17:55:00
11:15 AM,-9999,-9999,N/A,29.87,10.0,South,5.8,-,N/A,,Clear,190,2013-12-01 18:15:00
11:35 AM,-9999,-9999,N/A,29.87,10.0,SSW,9.2,-,N/A,,Clear,200,2013-12-01 18:35:00
11:55 AM,-9999,-9999,N/A,-9999,10.0,North,-9999.0,-,N/A,,Clear,0,2013-12-01 18:55:00
12:15 PM,-9999,-9999,N/A,-9999,10.0,North,-9999.0,-,N/A,,Clear,0,2013-12-01 19:15:00
12:35 PM,-9999,-9999,N/A,29.83,10.0,North,-9999.0,-,N/A,,Clear,0,2013-12-01 19:35:00
12:55 PM,-9999,-9999,N/A,-9999,10.0,North,-9999.0,-,N/A,,Clear,0,2013-12-01 19:55:00
1:15 PM,-9999,-9999,N/A,-9999,10.0,North,-9999.0,-,N/A,,Clear,0,2013-12-01 20:15:00
1:35 PM,-9999,-9999,N/A,-9999,10.0,North,-9999.0,-,N/A,,Partly Cloudy,0,2013-12-01 20:35:00
1:55 PM,-9999,-9999,N/A,-9999,10.0,North,-9999.0,-,N/A,,Scattered Clouds,0,2013-12-01 20:55:00
2:15 PM,-9999,-9999,N/A,-9999,10.0,North,-9999.0,-,N/A,,Mostly Cloudy,0,2013-12-01 21:15:00
2:35 PM,-9999,-9999,N/A,-9999,10.0,North,-9999.0,-,N/A,,Overcast,0,2013-12-01 21:35:00
2:55 PM,-9999,-9999,N/A,-9999,10.0,North,-9999.0,-,N/A,,Overcast,0,2013-12-01 21:55:00
3:15 PM,-9999,-9999,N/A,-9999,10.0,North,-9999.0,-,N/A,,Overcast,0,2013-12-01 22:15:00
3:35 PM,-9999,-9999,N/A,-9999,10.0,North,-9999.0,-,N/A,,Overcast,0,2013-12-01 22:35:00
3:55 PM,-9999,-9999,N/A,-9999,10.0,North,-9999.0,-,N/A,,Overcast,0,2013-12-01 22:55:00
4:15 PM,-9999,-9999,N/A,-9999,10.0,North,-9999.0,-,N/A,,Overcast,0,2013-12-01 23:15:00
4:35 PM,-9999,-9999,N/A,-9999,10.0,North,-9999.0,-,N/A,,Overcast,0,2013-12-01 23:35:00
4:55 PM,-9999,-9999,N/A,-9999,10.0,North,-9999.0,-,N/A,,Overcast,0,2013-12-01 23:55:00
5:15 PM,-9999,-9999,N/A,29.74,10.0,SSW,4.6,-,N/A,,Overcast,210,2013-12-02 00:15:00
5:35 PM,-9999,-9999,N/A,29.73,10.0,North,-9999.0,-,N/A,,Overcast,0,2013-12-02 00:35:00
5:55 PM,-9999,-9999,N/A,-9999,8.0,North,-9999.0,-,0.01,,Overcast,0,2013-12-02 00:55:00
6:15 PM,33.8,33.8,100,29.71,9.0,Calm,Calm,-,N/A,,Overcast,0,2013-12-02 01:15:00
6:35 PM,-9999,-9999,N/A,29.70,9.0,Calm,Calm,-,N/A,,Overcast,0,2013-12-02 01:35:00
6:55 PM,33.8,33.8,100,29.69,10.0,Calm,Calm,-,0.01,,Overcast,0,2013-12-02 01:55:00
7:15 PM,33.8,32.0,93,29.69,7.0,Calm,Calm,-,N/A,,Overcast,0,2013-12-02 02:15:00
7:35 PM,33.8,33.8,100,29.68,5.0,Calm,Calm,-,N/A,,Mostly Cloudy,0,2013-12-02 02:35:00
7:55 PM,33.8,32.0,93,29.68,9.0,Calm,Calm,-,N/A,,Overcast,0,2013-12-02 02:55:00
8:15 PM,33.8,32.0,93,29.67,6.0,SSW,3.5,-,N/A,,Overcast,200,2013-12-02 03:15:00
8:35 PM,33.8,32.0,93,29.67,7.0,North,-9999.0,-,N/A,,Overcast,0,2013-12-02 03:35:00
8:55 PM,-9999,-9999,N/A,-9999,4.0,North,-9999.0,-,N/A,,Overcast,0,2013-12-02 03:55:00
9:15 PM,33.8,32.0,93,29.65,0.8,South,3.5,-,0.01,,Overcast,190,2013-12-02 04:15:00
9:35 PM,33.8,32.0,93,29.65,1.2,South,3.5,-,0.01,,Overcast,190,2013-12-02 04:35:00
9:55 PM,33.8,32.0,93,29.64,4.0,SSW,3.5,-,0.02,,Overcast,200,2013-12-02 04:55:00
10:15 PM,33.8,32.0,93,29.63,5.0,SSW,4.6,-,0.01,,Overcast,200,2013-12-02 05:15:00
10:35 PM,33.8,32.0,93,29.63,3.0,South,3.5,-,0.02,,Overcast,190,2013-12-02 05:35:00
10:55 PM,33.8,32.0,93,29.62,5.0,South,3.5,-,0.02,,Overcast,190,2013-12-02 05:55:00
11:15 PM,33.8,32.0,93,29.61,3.0,South,3.5,-,0.01,,Overcast,190,2013-12-02 06:15:00
11:35 PM,33.8,32.0,93,29.61,1.5,Calm,Calm,-,0.01,,Overcast,0,2013-12-02 06:35:00
11:55 PM,33.8,33.8,100,29.59,0.8,South,4.6,-,0.01,,Overcast,180,2013-12-02 06:55:00